Location: *
(45.9500°N, 9.0833°E)
Time: 06:47:08
(UTC+00:00)

Cosmos 1707 Rocket - Pass Details

Date: 03 March 2021
Orbit: 604 x 632 km, 82.5° (Epoch: 18 April)

Event Time Altitude Azimuth Distance (km) Brightness Sun altitude
Rises 17:57:22 0° 347° (NNW) 2,905 7.2 -8.5°
Reaches altitude 10° 17:59:38 10° 344° (NNW) 1,990 6.4 -8.9°
Maximum altitude 18:03:58 58° 265° (W) 719 4.3 -9.6°
Drops below altitude 10° 18:08:12 10° 187° (S) 1,958 6.2 -10.4°
Sets 18:10:25 0° 183° (S) 2,853 7.0 -10.8°
